Location: Celina Division
(33.3022°N, 96.7580°W)
Time: 06:54:22
(UTC+00:00)

Meteor 1-31 Rocket - Pass Details

Date: 08 December 2021
Orbit: 519 x 544 km, 97.7° (Epoch: 17 January)

Event Time Altitude Azimuth Distance (km) Brightness Sun altitude
Rises 12:18:46 0° 356° (N) 2,704 6.1 -12.3°
Reaches altitude 10° 12:21:10 10° 342° (NNW) 1,811 5.1 -11.8°
Maximum altitude 12:24:19 24° 288° (WNW) 1,162 3.9 -11.2°
Drops below altitude 10° 12:27:28 10° 235° (SW) 1,806 5.1 -10.6°
Sets 12:29:53 0° 221° (SW) 2,695 6.1 -10.1°
